This is the latest recevied weather packets stored in our database for station/object IT9CNT. If no packets are shown the sender has not sent any weather packets the latest 10 day(s).
| Time | Temp. | Humidity | Pressure | Rain* | Wind** | Luminosity | Snow |
|---|---|---|---|---|---|---|---|
| 1787688543 | 28.89° C | 83% | 1014.5 hPa | 3.3 mm | - | - | - |
| 1787688483 | 28.89° C | 83% | 1014.4 hPa | 3.81 mm | - | - | - |
| 1787688423 | 28.89° C | 83% | 1014.4 hPa | 4.32 mm | - | - | - |
| 1787688363 | 28.89° C | 83% | 1014.4 hPa | 4.57 mm | - | - | - |
| 1787688303 | 28.89° C | 83% | 1014.5 hPa | 4.57 mm | - | - | - |
| 1787688243 | 28.89° C | 83% | 1014.3 hPa | 5.08 mm | - | - | - |
| 1787688183 | 28.89° C | 83% | 1014.6 hPa | 5.33 mm | - | - | - |
| 1787688123 | 28.89° C | 83% | 1014.6 hPa | 6.1 mm | - | - | - |
| 1787688063 | 28.89° C | 83% | 1014.5 hPa | 6.1 mm | - | - | - |
| 1787688003 | 28.89° C | 83% | 1014.5 hPa | 6.6 mm | - | - | - |
| 1787687943 | 28.89° C | 83% | 1014.4 hPa | 6.6 mm | - | - | - |
| 1787687883 | 28.89° C | 83% | 1014.4 hPa | 6.86 mm | - | - | - |
| 1787687823 | 28.89° C | 83% | 1014.7 hPa | 7.11 mm | - | - | - |
| 1787687763 | 28.89° C | 83% | 1014.4 hPa | 7.87 mm | - | - | - |
| 1787687703 | 28.89° C | 83% | 1014.5 hPa | 7.87 mm | - | - | - |
| 1787687643 | 29.44° C | 82% | 1014.6 hPa | 8.13 mm | - | - | - |
| 1787687583 | 29.44° C | 82% | 1014.5 hPa | 8.64 mm | - | - | - |
| 1787687523 | 29.44° C | 82% | 1014.4 hPa | 9.65 mm | - | - | - |
| 1787687463 | 29.44° C | 82% | 1014.6 hPa | 9.65 mm | - | - | - |
| 1787687403 | 29.44° C | 82% | 1014.4 hPa | 9.65 mm | - | - | - |
| 1787687343 | 29.44° C | 82% | 1014.8 hPa | 9.65 mm | - | - | - |
| 1787687283 | 29.44° C | 82% | 1014.6 hPa | 10.41 mm | - | - | - |
| 1787687223 | 29.44° C | 82% | 1014.4 hPa | 10.41 mm | - | - | - |
| 1787687163 | 29.44° C | 82% | 1014.7 hPa | 10.41 mm | - | - | - |
| 1787687103 | 29.44° C | 82% | 1014.3 hPa | 10.41 mm | - | - | - |
* Rain latest hour (hover to see other rain measurements)
** Current wind speed in m/s (hover to see current wind gust speed)